Wetbulb
72.89 75.23 76.75 76.67 76.04 75.79 76.62 76.72 77.22 77.39 77.17 76.92 76.97 76.77 76.39 75.84 75.12 74.18 73.50 72.56 72.31 70.97 69.85 68.73 68.38 68.17 67.66 67.18 66.51 66.44 66.53 66.67 67.28 69.02 70.63 71.83 72.99 73.09 72.58 73.26 73.80 73.78 74.24
73.27 75.26 76.39 76.32 76.07 75.53 75.97 76.62 76.84 76.91 76.86 76.91 76.71 76.31 75.79 75.31 74.34 73.66 72.75 71.61 71.39 69.89 69.14 68.30 67.44 67.03 66.73 66.44 66.13 66.03 65.79 65.03 64.72 64.93 66.68 70.27 72.01 71.78 72.59 72.42 72.86 73.63 74.51
73.79 75.22 75.59 76.07 76.19 75.53 75.33 75.79 76.06 76.33 76.45 76.53 76.24 75.81 75.04 74.52 73.66 72.68 72.07 70.92 70.26 69.45 68.34 67.25 66.69 66.72 66.65 66.65 66.64 66.69 66.42 66.25 66.13 65.71 65.04 66.81 72.40 71.83 70.79 72.06 72.71 73.21 73.93
75.21 75.14 72.93 75.94 76.04 75.89 75.14 74.71 75.14 75.36 75.73 75.78 75.68 74.96 74.22 73.67 73.21 71.99 71.08 70.40 69.51 68.57 67.86 67.41 67.27 67.45 67.72 67.55 67.40 67.32 67.19 67.25 67.54 68.12 66.14 62.68 63.94 71.34 70.10 70.24 71.23 72.82 72.99
75.02 75.12 73.81 75.74 75.69 75.87 75.44 74.79 74.37 74.36 74.64 74.89 74.84 74.39 73.89 73.39 73.19 72.27 71.17 69.92 69.07 68.71 68.46 68.40 68.47 68.35 68.32 68.32 68.19 68.21 68.01 68.05 68.67 68.89 68.30 66.50 65.66 70.12 70.68 70.18 71.94 73.01 73.16
74.71 74.92 75.43 75.19 75.36 75.59 75.59 75.12 74.66 74.27 74.09 74.27 74.17 73.87 73.54 73.27 72.53 71.58 70.81 70.52 69.67 68.96 68.98 69.29 69.08 68.86 69.13 69.27 69.72 70.28 70.49 70.36 70.73 71.53 69.92 68.76 66.44 69.14 69.62 69.98 70.92 72.02 73.48
74.17 74.98 76.16 74.91 75.11 75.24 75.34 75.04 74.79 74.54 74.16 73.97 74.09 73.74 73.17 72.60 71.86 71.21 70.85 70.26 69.82 69.75 69.54 69.54 69.34 69.38 69.25 69.38 69.27 69.67 69.93 70.19 70.62 70.51 71.06 70.51 69.38 69.36 68.91 69.92 71.21 72.05 72.75
73.08 74.63 75.97 75.05 75.19 74.94 74.84 74.52 74.24 73.81 73.81 73.79 73.39 73.20 72.60 72.10 71.76 71.31 71.08 70.75 70.68 71.06 70.84 70.22 70.04 70.19 70.25 70.26 70.81 71.24 71.27 71.07 70.90 70.65 71.50 71.92 69.69 69.05 68.88 70.37 71.70 72.73 72.79
72.54 73.86 75.68 75.97 74.57 75.01 74.51 74.04 73.69 73.29 72.87 72.62 72.23 71.93 71.96 71.93 71.66 71.34 71.21 71.15 71.22 71.31 71.63 71.68 71.11 70.82 71.03 70.98 70.96 71.26 71.28 71.08 70.62 70.40 70.95 70.77 70.20 68.99 68.54 71.22 71.54 72.73 72.44
72.00 72.93 73.93 76.38 73.54 73.11 73.21 74.39 73.84 73.26 72.77 72.30 72.08 72.11 71.86 72.01 71.71 71.51 70.97 70.97 71.63 71.78 71.96 72.05 71.46 71.28 71.09 71.56 71.22 71.00 70.32 70.18 68.93 68.87 70.03 70.65 70.48 69.42 68.37 69.84 70.78 71.77 71.91
70.48 72.60 74.11 74.82 74.67 73.17 72.00 73.13 73.87 73.59 73.14 72.50 72.35 72.20 71.56 69.27 69.75 69.37 69.31 70.84 71.84 71.91 72.13 71.98 71.49 71.49 71.59 71.51 70.83 70.36 70.08 68.82 69.42 69.74 69.53 71.17 70.69 69.32 68.34 69.54 70.46 70.65 70.75
69.49 70.95 73.31 75.66 75.17 74.51 71.92 73.37 73.18 71.54 71.45 71.25 70.46 70.96 70.39 70.15 70.06 68.65 69.75 70.90 71.54 72.08 71.96 71.86 72.03 71.76 71.47 70.20 70.75 70.16 69.19 69.78 70.06 69.44 70.12 71.22 70.58 69.92 69.19 69.05 69.99 70.33 69.89
69.03 70.30 71.63 76.90 77.52 76.14 74.15 72.49 74.11 73.44 72.65 72.31 72.21 71.72 72.22 69.88 70.72 70.11 70.10 69.32 70.35 71.24 70.26 71.22 71.33 71.11 70.47 70.46 70.43 70.80 70.37 69.88 68.78 68.61 70.62 70.29 69.41 69.31 69.72 69.69 69.64 70.10 70.64
66.81 67.65 69.19 71.80 76.82 77.58 74.89 73.10 72.52 73.00 73.96 72.43 72.30 73.34 72.07 70.83 71.39 72.00 70.29 70.17 71.39 70.14 70.62 70.82 70.64 71.19 70.76 71.98 71.06 69.81 69.81 69.72 68.97 68.78 70.72 70.23 68.88 68.59 69.28 69.64 69.81 69.94 70.39
66.85 67.99 69.01 70.94 76.79 77.11 77.57 74.53 74.55 74.20 73.65 74.08 73.05 73.74 73.31 71.28 71.63 70.82 71.92 70.63 71.25 70.07 69.73 71.33 71.57 72.03 72.31 71.29 70.44 69.92 69.85 69.78 70.00 69.32 69.90 70.58 69.62 69.21 69.52 69.81 69.62 69.71 70.01
67.62 68.10 68.70 69.61 77.62 77.18 76.94 77.81 77.57 77.01 75.35 74.70 74.31 75.03 74.29 72.59 72.54 71.81 72.29 71.34 71.26 70.91 70.72 70.72 71.40 71.59 71.01 71.32 70.58 70.32 70.18 70.04 70.18 71.78 68.65 69.49 70.22 69.86 69.62 69.56 69.81 69.98 70.09
67.40 68.93 72.29 72.71 74.98 77.90 78.10 77.92 76.31 74.12 75.06 73.64 74.06 76.76 76.45 74.61 73.87 73.28 72.28 71.09 71.09 71.82 73.27 72.57 73.16 71.75 70.78 70.70 70.92 70.85 70.45 71.03 69.61 70.83 69.52 69.66 69.28 69.75 70.00 69.87 69.51 69.82 69.97
69.87 70.02 72.56 69.29 72.47 76.87 77.44 76.85 75.36 73.74 72.91 73.00 73.53 74.51 76.28 76.08 75.13 74.54 71.37 71.54 72.18 71.51 71.11 69.58 69.58 68.60 70.21 69.47 70.15 69.52 69.93 69.93 69.97 70.06 68.13 69.44 69.69 68.50 69.38 69.77 69.38 69.69 69.74
68.96 70.21 70.86 72.74 70.07 75.53 76.88 74.25 74.64 76.06 73.43 72.82 73.21 73.17 76.17 75.46 74.67 74.10 72.45 72.19 73.77 71.08 70.42 69.35 69.53 69.96 68.83 68.73 68.45 69.31 70.58 69.55 69.15 68.17 69.60 69.05 69.73 69.82 67.63 68.62 69.38 69.50 70.11
70.11 71.84 72.44 71.40 73.62 75.87 73.30 75.00 71.27 70.87 72.41 73.42 72.85 73.23 76.04 75.00 73.85 74.49 72.79 72.86 72.88 70.44 69.65 69.28 70.04 69.28 69.22 68.36 67.99 70.19 69.46 69.76 69.14 67.87 68.81 68.05 67.49 69.61 70.26 68.41 67.36 68.10 70.11
69.13 70.63 72.16 72.03 74.23 72.28 68.91 68.32 68.25 67.88 71.03 72.35 73.14 76.01 75.55 74.48 74.29 74.11 72.14 72.83 72.45 70.45 70.46 71.19 70.03 70.29 68.11 69.99 67.56 68.22 68.24 69.74 69.37 67.90 68.26 67.53 68.76 68.42 69.13 69.36 67.99 69.06 67.94
68.29 69.45 70.86 72.09 73.57 73.92 70.36 71.39 70.02 72.33 71.15 72.40 73.26 75.22 74.63 73.57 73.69 73.29 72.89 72.50 72.23 69.99 72.04 71.68 70.57 67.10 67.40 70.11 66.66 65.77 61.50 63.02 66.43 66.95 66.93 69.40 68.16 69.47 67.99 68.28 68.95 70.13 69.98
67.17 68.82 69.26 71.22 72.75 74.04 73.22 72.59 73.92 73.63 73.97 72.15 72.85 72.36 73.04 73.03 72.78 73.12 72.28 73.09 73.22 71.28 68.69 71.11 69.66 69.41 66.97 68.81 69.08 64.89 59.98 59.04 63.39 65.68 66.55 66.10 67.73 68.24 68.84 69.55 68.78 69.23 67.34
66.20 67.36 69.53 70.62 72.70 73.76 75.76 71.57 73.79 70.80 69.86 71.04 72.69 72.75 72.38 72.88 71.35 72.00 71.62 71.51 71.91 70.51 71.08 69.73 70.27 70.37 70.24 67.09 66.95 66.69 67.09 64.72 60.03 58.98 65.27 66.39 68.54 67.73 68.87 69.32 69.41 68.72 68.25
65.07 67.13 69.07 71.24 72.57 73.23 73.97 72.65 70.59 72.68 71.34 72.30 72.37 72.66 72.73 72.50 72.13 70.88 71.43 71.28 71.06 70.52 71.46 71.27 72.18 71.64 69.51 67.18 65.56 65.09 65.20 63.71 64.11 60.56 58.94 62.87 66.20 68.09 69.03 69.19 68.94 69.25 68.87
62.98 63.15 67.43 70.51 71.40 72.79 73.40 74.05 74.90 74.87 74.32 72.16 72.30 70.12 70.64 70.21 70.36 70.41 70.61 70.98 71.84 71.24 73.22 71.70 72.35 70.64 69.53 68.97 66.05 66.18 63.61 61.88 61.46 61.48 60.10 62.72 63.26 65.42 67.15 64.89 69.20 69.13 67.39
MSLP
1002.40 1004.59 1006.19 1006.79 1007.26 1007.78 1008.10 1008.48 1008.81 1009.12 1009.41 1009.80 1010.14 1010.39 1010.66 1011.06 1011.47 1011.78 1012.10 1012.24 1012.55 1012.65 1012.87 1013.02 1013.16 1013.27 1013.33 1013.29 1013.41 1013.44 1013.48 1013.44 1013.44 1013.33 1013.40 1013.32 1013.32 1013.37 1013.43 1013.46 1013.57 1013.41 1013.82
1002.23 1004.50 1005.96 1006.68 1007.25 1007.85 1008.05 1008.50 1008.96 1009.19 1009.60 1009.89 1010.23 1010.50 1010.82 1011.12 1011.45 1011.87 1012.23 1012.46 1012.63 1012.83 1012.92 1013.08 1013.27 1013.43 1013.51 1013.58 1013.67 1013.78 1013.79 1013.77 1013.71 1013.57 1013.51 1013.44 1013.33 1013.41 1013.54 1013.59 1013.71 1013.57 1014.02
1002.64 1004.73 1006.09 1006.69 1007.19 1007.78 1008.22 1008.64 1009.00 1009.46 1009.80 1010.13 1010.45 1010.71 1011.09 1011.37 1011.65 1011.95 1012.31 1012.51 1012.66 1012.80 1013.01 1013.19 1013.35 1013.53 1013.59 1013.63 1013.79 1013.82 1013.88 1013.85 1013.84 1013.70 1013.48 1012.77 1012.64 1013.45 1013.69 1013.76 1013.66 1013.89 1013.99
1003.16 1004.79 1005.79 1006.91 1007.42 1007.77 1008.18 1008.69 1009.05 1009.61 1010.00 1010.31 1010.53 1010.81 1011.17 1011.49 1011.81 1012.13 1012.44 1012.58 1012.68 1012.88 1013.10 1013.29 1013.44 1013.53 1013.60 1013.71 1013.81 1013.86 1013.91 1014.03 1013.89 1013.70 1012.98 1012.12 1012.14 1013.24 1013.68 1013.79 1013.89 1013.90 1014.06
1003.39 1004.61 1005.43 1006.74 1007.31 1007.86 1008.15 1008.73 1009.16 1009.67 1010.03 1010.49 1010.83 1011.01 1011.19 1011.53 1011.70 1012.26 1012.60 1012.73 1012.81 1012.82 1013.00 1013.26 1013.49 1013.64 1013.70 1013.78 1013.96 1013.99 1014.12 1014.07 1013.95 1013.50 1012.11 1012.27 1012.46 1013.08 1013.59 1013.88 1013.83 1013.86 1014.02
1003.26 1004.30 1005.40 1006.58 1007.40 1007.87 1008.21 1008.57 1009.12 1009.64 1010.01 1010.41 1010.82 1011.17 1011.35 1011.52 1011.93 1012.19 1012.59 1012.85 1012.91 1012.98 1013.17 1013.41 1013.55 1013.64 1013.76 1013.90 1013.89 1014.04 1014.06 1014.05 1013.85 1012.71 1012.44 1012.70 1013.03 1013.43 1013.67 1013.86 1013.95 1013.94 1013.92
1002.82 1003.67 1005.35 1006.53 1007.39 1007.88 1008.25 1008.62 1009.00 1009.37 1009.92 1010.28 1010.66 1011.00 1011.42 1011.67 1011.98 1012.17 1012.43 1012.74 1012.96 1013.08 1013.26 1013.48 1013.64 1013.67 1013.73 1013.79 1013.80 1013.95 1014.04 1014.02 1013.62 1012.63 1012.06 1012.48 1012.62 1013.48 1013.70 1013.80 1013.81 1013.87 1013.94
1002.29 1003.25 1004.59 1006.63 1007.41 1007.79 1008.14 1008.40 1008.84 1009.22 1009.79 1010.22 1010.53 1010.82 1011.20 1011.57 1011.76 1012.18 1012.46 1012.73 1012.95 1013.04 1013.23 1013.53 1013.72 1013.78 1013.92 1013.87 1013.88 1013.93 1014.05 1014.10 1013.41 1012.42 1011.94 1012.02 1012.99 1013.51 1013.84 1013.79 1013.64 1013.65 1013.83
1001.84 1003.00 1004.22 1005.88 1007.00 1007.77 1008.14 1008.34 1008.67 1009.00 1009.35 1009.82 1010.34 1010.59 1011.00 1011.35 1011.67 1012.04 1012.27 1012.53 1012.83 1012.99 1013.22 1013.50 1013.65 1013.72 1013.98 1014.11 1014.17 1014.11 1014.08 1014.08 1013.72 1012.41 1011.47 1011.60 1012.69 1013.33 1013.84 1013.76 1013.51 1013.44 1013.73
1001.26 1002.33 1003.30 1004.91 1006.19 1006.89 1007.54 1008.37 1008.62 1009.02 1009.29 1009.60 1009.97 1010.38 1010.74 1011.24 1011.58 1011.85 1012.11 1012.38 1012.62 1012.83 1013.05 1013.24 1013.41 1013.63 1013.86 1013.88 1013.99 1014.03 1014.08 1014.03 1013.62 1012.69 1011.70 1011.89 1012.67 1013.04 1013.61 1013.78 1013.52 1013.55 1013.75
1000.63 1001.65 1002.73 1003.80 1005.26 1005.89 1006.26 1007.32 1008.61 1009.04 1009.35 1009.65 1009.83 1010.17 1010.53 1010.62 1010.94 1011.26 1011.52 1011.66 1012.25 1012.65 1012.80 1012.83 1012.94 1013.28 1013.71 1013.66 1013.47 1013.73 1013.87 1013.16 1012.14 1011.61 1011.36 1012.48 1012.71 1012.93 1013.32 1013.73 1013.69 1013.66 1013.76
1000.36 1001.16 1002.22 1003.44 1004.24 1005.05 1005.21 1005.77 1007.42 1008.10 1008.55 1008.91 1009.10 1009.44 1009.94 1009.82 1009.93 1010.27 1010.65 1011.34 1011.89 1012.45 1012.62 1012.36 1012.01 1012.03 1013.00 1012.67 1012.64 1013.39 1012.95 1012.12 1011.31 1011.26 1011.13 1012.43 1012.73 1012.96 1013.21 1013.55 1013.72 1013.74 1013.76
999.89 1000.42 1001.10 1002.79 1003.94 1004.28 1004.66 1005.04 1006.07 1006.81 1007.52 1007.97 1008.24 1008.57 1008.86 1009.08 1009.25 1009.47 1009.78 1010.66 1011.20 1011.86 1011.78 1012.15 1012.31 1012.13 1011.57 1011.81 1010.64 1011.25 1011.03 1011.17 1011.32 1010.91 1011.74 1012.19 1012.66 1012.95 1013.14 1013.31 1013.55 1013.66 1013.69
999.74 1000.31 1001.04 1002.11 1003.46 1004.32 1004.28 1004.67 1004.96 1005.49 1006.14 1006.74 1007.14 1007.79 1008.11 1008.51 1008.58 1008.56 1008.86 1009.21 1010.11 1010.35 1010.79 1010.79 1010.80 1011.03 1011.04 1010.73 1010.86 1010.51 1010.92 1011.10 1010.76 1010.57 1011.08 1011.74 1012.26 1012.73 1013.01 1013.18 1013.29 1013.47 1013.54
1000.60 1000.74 1001.06 1001.81 1002.84 1003.83 1004.45 1004.03 1004.28 1004.57 1004.78 1005.23 1005.74 1006.48 1007.13 1007.38 1007.78 1008.15 1008.19 1008.29 1008.69 1009.22 1009.95 1009.82 1010.00 1010.22 1010.33 1010.46 1010.77 1010.56 1010.76 1010.66 1010.70 1010.69 1010.88 1011.67 1011.97 1012.34 1012.72 1012.87 1013.03 1013.16 1013.28
1000.94 1000.94 1001.07 1001.31 1002.19 1003.29 1003.68 1003.91 1003.80 1004.15 1003.93 1004.35 1004.59 1004.86 1005.90 1006.33 1006.66 1007.08 1007.62 1007.80 1007.86 1008.42 1008.54 1009.01 1009.16 1009.27 1010.02 1010.11 1010.42 1010.35 1010.32 1010.31 1010.44 1010.67 1010.76 1011.45 1011.74 1011.91 1012.20 1012.48 1012.68 1012.84 1012.93
1000.38 1000.60 1000.91 1001.38 1001.71 1002.41 1003.02 1003.39 1003.67 1003.41 1003.61 1003.66 1003.60 1004.07 1004.64 1005.65 1005.92 1006.24 1006.67 1007.26 1007.41 1007.51 1008.20 1008.46 1008.92 1009.15 1009.32 1009.92 1009.77 1009.52 1010.00 1010.37 1010.63 1010.49 1010.58 1010.15 1011.27 1011.39 1011.79 1011.96 1012.23 1012.52 1012.59
999.90 1000.14 1000.64 1000.70 1000.83 1001.71 1002.24 1002.69 1002.86 1002.74 1002.84 1002.77 1002.96 1003.09 1003.80 1004.47 1005.21 1005.71 1006.06 1006.49 1006.86 1007.21 1007.54 1008.50 1008.61 1008.59 1008.84 1009.22 1009.09 1009.45 1010.12 1010.32 1010.29 1010.25 1010.36 1009.88 1010.61 1010.93 1011.42 1011.63 1011.84 1012.02 1012.14
999.43 1000.01 1000.47 1000.75 1000.82 1001.03 1001.35 1001.83 1002.07 1002.18 1002.23 1002.13 1002.01 1002.37 1002.90 1003.73 1004.48 1005.34 1005.55 1005.83 1006.46 1006.92 1007.21 1007.72 1007.84 1008.14 1008.56 1008.74 1008.81 1009.56 1010.02 1009.98 1009.65 1009.92 1009.61 1009.77 1010.02 1010.14 1010.83 1011.09 1011.31 1011.53 1011.75
999.50 999.81 1000.24 1000.60 1000.43 1000.58 1000.90 1001.34 1001.50 1001.36 1001.34 1001.53 1001.49 1001.65 1002.21 1003.14 1003.99 1004.83 1005.19 1005.48 1005.90 1006.42 1006.67 1007.18 1007.49 1008.03 1008.15 1008.21 1008.51 1009.06 1009.47 1009.27 1009.35 1009.08 1009.41 1009.65 1009.87 1009.78 1009.91 1010.48 1010.90 1011.05 1011.40
998.82 999.27 999.61 999.96 1000.13 1000.24 1000.33 1000.48 1000.57 1000.22 1000.15 1000.59 1000.99 1001.41 1001.83 1002.63 1003.54 1004.21 1004.80 1004.94 1005.42 1005.88 1006.30 1006.79 1007.29 1007.69 1008.12 1008.48 1008.40 1008.87 1008.40 1008.14 1008.38 1008.80 1009.06 1009.27 1009.45 1009.61 1009.88 1009.81 1010.55 1010.21 1011.05
997.93 998.58 998.97 999.18 999.46 999.66 999.58 1000.00 999.71 999.31 999.20 999.65 1000.43 1001.08 1001.67 1002.36 1003.10 1003.82 1004.33 1004.35 1005.10 1005.42 1006.03 1006.38 1007.11 1007.64 1007.95 1008.09 1008.10 1007.80 1007.53 1007.32 1007.37 1008.50 1008.52 1009.07 1009.45 1009.62 1009.71 1009.65 1009.88 1009.81 1010.42
996.89 997.40 997.83 998.28 998.59 998.86 999.03 999.14 999.48 999.70 999.69 999.15 999.84 1000.78 1001.52 1002.20 1003.00 1003.62 1004.23 1004.04 1004.53 1005.27 1005.40 1006.26 1007.11 1007.33 1007.22 1007.98 1008.19 1007.76 1007.33 1007.00 1008.04 1008.27 1008.33 1008.73 1009.31 1009.60 1009.52 1009.43 1009.38 1009.55 1010.83
995.89 996.38 996.58 997.12 997.59 997.98 998.45 998.64 998.65 998.83 998.89 998.94 999.37 1000.26 1001.44 1002.20 1002.99 1003.45 1003.94 1004.24 1004.42 1005.06 1004.96 1006.21 1006.64 1006.59 1007.21 1007.48 1007.61 1007.94 1007.94 1007.69 1007.58 1007.98 1008.33 1008.81 1009.17 1009.44 1009.39 1009.52 1009.78 1009.59 1010.58
994.59 994.79 995.30 996.03 996.77 997.36 997.60 998.10 998.26 998.53 998.37 998.81 999.27 1000.53 1001.45 1002.16 1002.75 1003.43 1003.87 1004.06 1004.46 1004.75 1005.19 1005.55 1005.99 1006.49 1006.90 1006.55 1006.62 1007.03 1007.58 1007.56 1007.93 1008.12 1008.22 1008.79 1009.36 1009.30 1009.30 1009.36 1009.51 1009.30 1009.54
993.73 994.07 994.60 995.30 996.04 996.75 997.13 997.52 997.81 997.93 998.09 998.60 999.37 1000.62 1001.27 1002.20 1002.85 1003.48 1003.77 1003.97 1004.31 1004.62 1004.72 1005.21 1005.78 1006.35 1006.56 1006.59 1006.58 1006.72 1006.97 1007.34 1007.85 1008.20 1008.34 1008.85 1008.99 1009.18 1009.23 1009.49 1009.39 1009.35 1009.35
Wind_Speed
15 21 20 18 18 16 15 16 14 13 14 14 14 14 13 12 11 11 10 10 9 9 8 7 6 6 5 5 5 5 5 4 4 4 4 5 6 4 2 1 4 5 12
18 21 21 19 18 17 16 15 14 13 13 14 14 14 13 14 13 11 10 10 9 9 8 7 6 6 5 5 5 4 4 3 1 1 1 4 6 5 2 1 1 5 10
18 19 20 19 19 18 16 15 14 13 13 13 13 13 13 12 13 12 11 11 10 9 8 8 7 6 5 4 4 3 3 2 1 2 6 9 12 8 4 3 2 6 10
19 17 20 19 17 18 17 15 14 13 13 13 13 13 14 12 11 12 12 11 11 10 9 8 8 7 6 5 4 3 1 2 4 7 9 8 6 12 5 2 2 6 5
17 18 18 21 18 17 17 16 15 14 13 12 13 13 13 12 11 10 10 10 11 11 11 10 8 7 6 5 4 2 1 2 6 10 6 3 2 12 7 1 5 6 8
17 17 18 20 17 17 16 17 15 14 14 13 13 12 12 12 11 11 11 10 11 11 10 10 9 8 6 5 4 3 3 4 9 12 1 5 7 8 4 2 4 4 7
16 16 19 21 17 17 17 17 16 16 15 15 14 13 12 11 11 11 11 11 11 10 10 10 9 8 6 5 4 4 4 6 11 10 5 4 4 7 3 3 5 6 6
16 15 18 19 18 17 17 18 18 17 15 14 15 14 13 12 12 12 11 12 12 11 10 10 9 7 7 6 6 7 7 8 11 10 4 3 12 7 2 6 6 7 9
16 14 16 16 18 16 17 18 18 17 17 16 15 14 14 14 13 14 14 13 12 11 10 9 9 8 7 7 8 8 8 9 11 11 9 7 14 9 1 7 5 6 9
15 15 14 15 18 18 17 16 17 17 17 17 16 16 15 15 14 14 13 13 13 12 11 10 10 9 9 8 8 9 9 11 11 12 10 7 13 11 3 5 3 6 7
11 10 10 14 16 17 17 16 14 15 15 16 15 16 14 13 15 16 16 15 15 13 13 12 11 9 9 11 12 12 10 9 11 9 6 13 11 9 5 4 4 5 6
12 12 11 9 13 16 13 15 16 15 14 14 14 15 13 14 13 15 16 15 16 13 14 15 16 15 10 10 10 12 8 12 6 6 1 12 9 7 5 6 6 5 6
15 11 11 13 10 12 12 9 9 8 9 10 15 14 14 12 11 11 9 10 11 14 11 12 10 10 10 11 6 11 8 3 6 5 10 13 8 6 8 9 9 8 8
6 7 9 7 12 10 8 10 10 9 10 10 13 16 12 10 11 10 9 12 11 11 12 12 10 11 13 12 8 7 7 6 6 4 9 14 11 8 10 11 11 11 10
12 11 10 8 11 11 11 10 10 10 10 12 13 16 13 12 11 12 10 11 12 12 13 12 12 11 12 9 9 9 9 8 8 5 0 13 14 12 11 12 13 13 13
13 13 11 10 11 12 11 11 8 9 9 11 11 12 19 13 12 12 12 12 11 12 12 12 10 9 9 10 9 11 9 9 7 4 5 8 14 13 13 13 13 14 14
13 13 9 7 8 13 13 11 10 10 11 11 11 13 15 17 14 14 11 11 11 10 11 8 11 9 10 7 13 8 7 3 6 9 4 8 9 14 14 13 13 14 14
14 11 10 11 9 13 12 10 9 10 11 12 12 11 15 16 16 12 12 11 11 9 10 10 9 11 8 9 7 3 5 7 11 10 7 7 5 5 11 14 14 14 14
10 9 11 10 12 9 9 9 10 11 11 11 11 11 14 16 17 13 11 10 11 10 10 9 10 9 10 7 7 7 6 9 9 8 9 5 11 8 6 12 16 15 15
11 11 10 11 11 10 8 7 9 10 11 11 11 11 12 12 15 13 12 11 11 10 10 10 10 10 6 8 7 4 9 7 11 8 5 6 7 7 6 6 7 10 13
12 11 11 12 13 9 9 10 10 12 11 10 10 11 11 12 14 13 12 12 10 11 11 11 9 9 7 6 6 8 10 11 10 9 7 4 9 8 10 11 9 5 8
15 14 14 14 13 11 10 9 10 7 10 10 9 9 11 13 14 13 13 11 13 11 11 9 10 7 10 5 7 6 7 8 7 3 6 0 8 8 10 9 12 8 3
16 15 16 15 15 13 13 8 7 7 7 8 9 9 11 13 12 13 15 10 11 11 11 9 10 13 7 7 10 5 5 1 3 5 7 7 8 8 9 6 11 7 7
19 18 17 17 14 13 12 11 11 9 10 10 8 9 9 12 12 12 10 10 8 11 9 11 11 9 8 7 7 6 9 8 6 3 3 3 5 8 10 6 7 9 14
19 15 13 14 13 12 12 13 12 12 10 7 8 12 10 9 10 10 9 8 8 10 10 12 10 9 8 7 7 6 7 7 7 7 4 3 4 6 6 7 7 7 9
15 13 12 13 13 13 13 13 13 12 11 10 10 10 8 7 8 10 13 9 10 11 10 10 9 8 6 6 7 6 6 3 5 5 5 5 6 3 3 2 5 7 8
Wind_Direction
138 146 161 163 164 162 160 161 160 159 152 149 150 152 149 144 145 145 143 138 135 133 132 127 124 120 115 105 105 106 104 93 83 74 78 83 73 59 81 193 209 170 138
142 152 163 166 167 166 161 163 165 160 156 154 156 156 154 153 153 155 156 152 147 147 144 141 140 138 130 118 107 101 96 84 62 48 263 179 127 96 50 241 349 131 152
140 154 169 171 170 169 165 164 163 163 160 162 162 159 160 163 166 162 163 163 159 156 153 154 154 151 142 124 110 94 76 76 339 272 254 241 148 117 79 32 140 150 149
135 158 174 174 175 172 167 169 163 167 168 166 168 169 171 170 170 172 171 171 164 161 162 166 168 162 155 151 143 128 108 334 295 277 240 228 261 127 109 39 348 162 152
143 161 176 173 175 174 171 169 169 173 173 174 178 179 176 176 172 174 178 176 175 172 172 173 173 168 165 163 162 160 213 280 284 275 266 281 290 117 123 37 221 191 186
157 169 156 168 176 176 175 172 172 178 179 180 185 187 185 180 177 173 180 184 185 182 179 181 178 177 180 183 181 208 242 277 281 256 49 125 261 107 86 10 312 303 193
163 168 153 162 178 179 178 176 178 181 184 185 187 188 192 187 183 182 184 188 194 190 187 190 190 188 193 204 211 235 250 267 273 297 231 224 104 97 52 319 287 275 212
161 168 148 164 174 182 184 182 184 182 186 190 189 189 192 193 188 190 191 196 198 196 194 197 198 200 212 224 238 249 251 264 275 258 295 234 121 111 336 302 276 248 213
156 167 152 174 178 183 187 188 187 186 187 189 191 192 195 198 193 194 195 198 199 196 197 199 204 208 223 238 249 257 253 256 274 281 263 222 128 125 291 308 265 207 196
161 167 170 166 185 192 192 196 193 191 189 191 191 194 196 199 199 197 196 199 200 199 198 200 208 216 225 237 244 246 254 258 256 271 277 116 132 136 143 302 226 173 182
172 171 185 169 180 195 198 189 195 201 198 197 197 198 192 207 201 204 204 192 198 199 201 203 204 215 237 238 229 231 238 248 238 217 244 132 132 136 150 257 248 195 179
183 180 183 184 195 192 208 188 192 203 207 209 208 206 211 211 211 208 202 205 186 198 211 209 201 192 214 247 204 216 225 244 259 270 178 130 133 151 186 231 243 231 204
197 202 190 160 196 213 201 201 178 198 203 208 212 209 204 212 214 203 207 189 196 199 210 211 205 215 193 232 247 210 229 228 257 251 109 137 152 195 215 226 237 237 226
236 219 171 214 179 210 223 198 210 205 199 205 205 211 212 207 208 214 207 191 194 196 215 205 211 200 220 231 250 251 239 262 271 245 139 151 163 199 230 235 234 237 239
283 272 269 214 180 193 215 222 205 213 208 207 213 200 207 208 215 209 208 217 188 207 197 210 204 212 217 218 231 229 243 253 256 271 334 162 174 190 224 234 233 233 236
259 269 270 254 174 191 210 217 224 216 228 211 220 211 200 207 205 208 210 210 214 201 202 212 211 207 211 229 214 230 237 253 264 252 253 170 181 190 210 229 233 234 234
258 258 250 239 237 190 204 214 219 238 216 240 221 216 198 203 214 206 205 216 218 204 222 192 214 204 232 210 239 220 228 248 266 268 236 238 189 189 207 212 222 234 235
244 247 251 248 216 192 201 216 225 238 237 234 229 220 205 197 212 213 216 208 215 213 192 213 212 222 208 234 239 231 226 234 239 240 257 264 159 191 211 216 215 219 224
262 232 235 245 248 245 208 227 239 241 239 246 234 225 202 202 197 225 208 222 201 210 210 204 212 207 214 223 229 225 231 246 244 234 243 221 247 222 184 222 206 209 215
234 228 238 252 251 241 248 238 248 249 235 234 236 223 208 193 203 195 227 212 203 213 210 207 208 210 230 222 225 216 240 226 231 255 220 218 225 234 260 188 197 204 201
250 251 238 235 242 243 241 236 240 237 232 224 225 222 207 194 198 192 213 201 212 208 216 197 195 212 196 235 217 247 222 225 223 239 256 196 248 253 229 242 209 210 177
245 238 239 239 238 234 226 234 252 258 231 214 211 206 201 200 194 196 212 203 198 207 206 185 192 199 222 166 229 248 271 252 186 196 245 195 227 240 237 225 232 181 185
248 239 232 233 235 236 229 221 221 248 260 212 198 189 194 198 185 205 198 220 180 213 191 191 183 219 185 194 229 270 261 213 123 238 197 224 224 238 243 245 222 188 115
245 240 236 229 226 222 208 228 215 213 218 219 199 184 176 188 191 191 182 221 165 202 179 182 203 204 183 200 197 232 267 300 281 223 278 257 240 233 234 213 205 215 161
246 238 222 220 210 218 204 219 222 217 209 191 195 143 192 189 167 174 182 192 172 204 173 191 179 190 194 241 214 182 202 230 223 272 270 223 233 236 227 203 198 201 193
249 240 231 210 214 215 211 204 231 192 236 172 189 160 162 156 158 170 186 185 172 208 163 176 171 189 232 226 253 168 207 241 232 239 255 274 222 183 184 195 196 209 190